Location: Firnhaberau
(48.4049°N, 10.8963°E)
Time: 04:03:23
(UTC+00:00)

NOSS 2-1 (C) - Pass Details

Date: 07 June 2020
Orbit: 448 x 1755 km, 63.3° (Epoch: 29 June)

Event Time Altitude Azimuth Distance (km) Brightness Sun altitude
Exits shadow 01:12:31 27° 196° (SSW) 886 3.8 -14.1°
Maximum altitude 01:14:06 59° 127° (SE) 531 3.1 -14.0°
Drops below altitude 10° 01:17:38 10° 47° (NE) 1,681 7.0 -13.7°
Sets 01:19:57 0° 44° (NE) 2,670 8.5 -13.5°
